Tracking 28908 objects as of 21-May-2024
HD Live streaming from Space Station
objects crossing your sky now

STARLINK-1759

Track STARLINK-1759 now!
10-day predictions
STARLINK-1759 is classified as:


NORAD ID: 46340
Int'l Code: 2020-062R
Perigee: 553.2 km
Apogee: 555.5 km
Inclination: 53.1 °
Period: 95.6 minutes
Semi major axis: 6925 km
RCS: Unknown
Launch date: September 3, 2020
Source: United States (US)
Launch site: AIR FORCE EASTERN TEST RANGE (AFETR)
Your satellite tracking list
Your tracking list is empty




NASA's NSSDC Master Catalog

Two Line Element Set (TLE):
1 46340U 20062R   24141.13177611  .00007060  00000-0  49243-3 0  9994
2 46340  53.0546  93.3107 0001657  83.1338 276.9839 15.06394878205035
Source of the keplerian elements: AFSPC